This is the latest recevied weather packets stored in our database for station/object WI0K. If no packets are shown the sender has not sent any weather packets the latest 10 day(s).
| Time | Temp. | Humidity | Pressure | Rain* | Wind** | Luminosity | Snow |
|---|---|---|---|---|---|---|---|
| 1777936883 | 17.78° C | 32% | 1009.8 hPa | 0.25 mm | - | 217 W/m² | - |
| 1777936583 | 17.78° C | 31% | 1009.8 hPa | 0.25 mm | - | 226 W/m² | - |
| 1777936524 | 17.78° C | 31% | 1009.7 hPa | 0.25 mm | - | 261 W/m² | - |
| 1777936282 | 17.78° C | 31% | 1009.7 hPa | 0.25 mm | - | 261 W/m² | - |
| 1777936223 | 17.78° C | 31% | 1009.6 hPa | 0.25 mm | - | 227 W/m² | - |
| 1777935981 | 17.78° C | 31% | 1009.6 hPa | 0.25 mm | - | 227 W/m² | - |
| 1777935923 | 17.78° C | 31% | 1009.6 hPa | 0.25 mm | - | 175 W/m² | - |
| 1777935681 | 17.78° C | 31% | 1009.6 hPa | 0.25 mm | - | 175 W/m² | - |
| 1777935617 | 17.78° C | 31% | 1009.5 hPa | 0.51 mm | - | 167 W/m² | - |
| 1777935380 | 17.78° C | 31% | 1009.5 hPa | 0.51 mm | - | 167 W/m² | - |
| 1777935079 | 17.78° C | 31% | 1009.5 hPa | 1.02 mm | - | 185 W/m² | - |
| 1777935016 | 17.78° C | 31% | 1009.6 hPa | 0.76 mm | - | 181 W/m² | - |
| 1777934779 | 17.78° C | 31% | 1009.6 hPa | 0.76 mm | - | 181 W/m² | - |
| 1777934726 | 17.78° C | 31% | 1009.6 hPa | 0.76 mm | - | 178 W/m² | - |
| 1777934478 | 17.78° C | 31% | 1009.6 hPa | 0.76 mm | - | 178 W/m² | - |
| 1777934425 | 17.78° C | 31% | 1009.3 hPa | 0.76 mm | - | 158 W/m² | - |
| 1777934177 | 17.78° C | 31% | 1009.3 hPa | 0.76 mm | - | 158 W/m² | - |
| 1777933877 | 17.78° C | 31% | 1009.3 hPa | 0.76 mm | - | 141 W/m² | - |
| 1777933819 | 17.78° C | 31% | 1009.5 hPa | 0.76 mm | - | 155 W/m² | - |
| 1777933576 | 17.78° C | 31% | 1009.5 hPa | 0.76 mm | - | 155 W/m² | - |
| 1777933524 | 17.78° C | 30% | 1009.3 hPa | 0.76 mm | - | 161 W/m² | - |
| 1777933275 | 17.78° C | 30% | 1009.3 hPa | 0.76 mm | - | 161 W/m² | - |
| 1777933218 | 17.78° C | 30% | 1009.2 hPa | 0.76 mm | - | 193 W/m² | - |
| 1777932975 | 17.78° C | 30% | 1009.2 hPa | 0.76 mm | - | 193 W/m² | - |
| 1777932674 | 17.78° C | 30% | 1009 hPa | 0.76 mm | - | 193 W/m² | - |
* Rain latest hour (hover to see other rain measurements)
** Current wind speed in m/s (hover to see current wind gust speed)